Regional Weather Roundup
Issued by NWS Nashville, TN

Home | Current Version | Previous Version | Text Only | Print | Product List | Glossary On
Versions: 1 2 3 4 5 6 7 8 9 10 11 12 13 14 15 16 17 18 19 20 21 22 23 24 25 26 27 28 29 30 31 32 33 34 35 36 37 38 39 40 41 42 43 44 45 46 47 48 49
000
ASUS44 KOHX 291610
RWROHX
MIDDLE TENNESSEE HOURLY WEATHER ROUNDUP
NATIONAL WEATHER SERVICE NASHVILLE TN
1100 AM CDT WED JUL 29 2015

NOTE: "FAIR" INDICATES FEW OR NO CLOUDS BELOW 12,000 FEET WITH
NO SIGNIFICANT WEATHER AND/OR OBSTRUCTIONS TO VISIBILITY.

* THESE REPORTS ARE NOT UNDER NWS QUALITY CONTROL AND MAY NOT
  REPORT WEATHER SUCH AS PRECIPITATION AND FOG.


TNZ005>011-023>034-057-059-062>066-078-080-291700
...NORTHERN MIDDLE TENNESSEE...

CITY           SKY/WX    TMP DP  RH WIND       PRES   REMARKS
CLARKSVILLE    CLOUDY    74  71  91 CALM      30.03F
CROSSVILLE     PTSUNNY   84  72  67 NE5       30.10F
DICKSON        CLOUDY    75  72  88 W3        30.07R
NASHVILLE      MOSUNNY   85  72  65 SW6       30.05S HX  91
ROCKWOOD       MOSUNNY   84  73  69 CALM      30.10R HX  90
SMYRNA         CLOUDY    88  75  65 NW7       30.06R HX  97
$$
TNZ056-058-060-061-075>077-079-093>097-291700
...SOUTHERN MIDDLE TENNESSEE...

CITY           SKY/WX    TMP DP  RH WIND       PRES   REMARKS
COLUMBIA       PTSUNNY   75  75 100 E12       30.08R
LEWISBURG      MOSUNNY   83  71  66 W8        30.07R
MCMINNVILLE    SUNNY     86  77  74 NE5       30.07S HX  97
SHELBYVILLE    CLOUDY    86  75  70 W7        30.08R HX  95
TULLAHOMA      PTSUNNY   86  70  58 NW5       30.08S HX  90
WINCHESTER     SUNNY     86  72  62 N5        30.06F HX  92
$$


...KEY TO REMARKS...
VSB - VISIBILITY IN MILES
WCI - WIND CHILL INDEX
HX  - HEAT INDEX




USA.gov is the U.S. government's official web portal to all federal, state and local government web resources and services.